FW2567 Weather Reports


time (UTC)temp
C
wind
direction
speed
KPH
gust
KPH
rain 1hr
cm
rain 24hr
cm
rain mn
cm
humidity
%
barometer
mb
20260508030031 16 320 6.4 16.1 0.00 0.00 0.00 35 1017.5
20260508024530 17 336 6.4 20.9 0.00 0.00 0.00 34 1017.4
20260508023107 17 311 6.4 16.1 0.00 0.00 0.00 34 1017.3
20260508021529 18 329 9.7 19.3 0.00 0.00 0.00 34 1017.1
20260508020029 19 308 8.0 20.9 0.00 0.00 0.00 34 1017.1
20260508014530 20 297 9.7 19.3 0.00 0.00 0.00 33 1017.1
20260508013030 20 287 6.4 17.7 0.00 0.00 0.00 32 1017.1
20260508011607 21 301 9.7 19.3 0.00 0.00 0.00 30 1017.2
20260508010032 21 301 11.3 20.9 0.00 0.00 0.00 28 1017.2
20260508004603 22 294 11.3 22.5 0.00 0.00 0.00 27 1017.1
20260508003029 22 292 8.0 24.1 0.00 0.00 0.00 27 1017.1
20260508001531 22 283 11.3 22.5 0.00 0.00 0.00 26 1017.1
20260507234533 22 299 12.9 32.2 0.00 0.00 0.00 25 1017.0
20260507233031 23 310 11.3 27.4 0.00 0.00 0.00 25 1017.1
20260507231529 23 303 12.9 32.2 0.00 0.00 0.00 25 1017.2
20260507230029 23 295 9.7 22.5 0.00 0.00 0.00 25 1017.3
20260507224607 23 297 11.3 19.3 0.00 0.00 0.00 25 1017.4
20260507223030 23 278 9.7 22.5 0.00 0.00 0.00 27 1017.5
20260507221529 22 301 8.0 17.7 0.00 0.00 0.00 28 1017.7
20260507214530 21 330 6.4 19.3 0.00 0.00 0.00 29 1018.1
20260507213030 21 318 11.3 25.7 0.00 0.00 0.00 30 1018.1
20260507211607 21 328 11.3 25.7 0.00 0.00 0.00 32 1018.1
20260507210107 20 329 9.7 29.0 0.00 0.00 0.00 32 1018.1
20260507203031 21 317 11.3 29.0 0.00 0.00 0.00 33 1018.4
20260507201607 21 306 11.3 29.0 0.00 0.00 0.00 31 1018.6
20260507200106 21 285 11.3 22.5 0.00 0.00 0.00 31 1018.7
20260507194531 21 283 12.9 24.1 0.00 0.00 0.00 31 1018.8
20260507193031 21 292 11.3 25.7 0.00 0.00 0.00 31 1018.9
20260507191604 21 291 12.9 24.1 0.00 0.00 0.00 32 1018.9
20260507190033 20 296 12.9 24.1 0.00 0.00 0.00 32 1019.1
20260507184529 20 300 14.5 22.5 0.00 0.00 0.00 33 1019.2
20260507181532 19 287 11.3 24.1 0.00 0.00 0.00 36 1019.4
20260507180103 18 289 11.3 27.4 0.00 0.00 0.00 37 1019.6
20260507174531 18 291 11.3 25.7 0.00 0.00 0.00 40 1019.8
20260507173028 18 288 14.5 22.5 0.00 0.00 0.00 42 1019.9
20260507170031 17 335 9.7 20.9 0.00 0.00 0.00 48 1019.8
20260507164531 17 337 9.7 17.7 0.00 0.00 0.00 49 1019.9
20260507163031 17 341 8.0 20.9 0.00 0.00 0.00 49 1019.9
20260507160107 16 322 11.3 20.9 0.00 0.00 0.00 51 1019.9
20260507154531 16 330 11.3 22.5 0.00 0.00 0.00 51 1020.0
20260507151606 16 325 9.7 17.7 0.00 0.00 0.00 53 1020.2
20260507150035 15 302 4.8 12.9 0.00 0.00 0.00 57 1020.3
20260507144532 15 304 4.8 12.9 0.00 0.00 0.00 59 1020.3
20260507141529 13 327 3.2 11.3 0.00 0.00 0.00 67 1020.2
20260507140031 11 302 3.2 12.9 0.00 0.00 0.00 74 1020.0
20260507133029 9 308 4.8 9.7 0.00 0.00 0.00 80 1020.0
20260507131531 9 325 1.6 6.4 0.00 0.00 0.00 78 1020.1
20260507130029 10 348 4.8 6.4 0.00 0.00 0.00 77 1020.0
20260507124529 10 338 4.8 11.3 0.00 0.00 0.00 77 1020.0
20260507123030 10 347 4.8 12.9 0.00 0.00 0.00 77 1020.0
20260507121607 10 259 3.2 16.1 0.00 0.00 0.00 76 1019.9
20260507120029 11 143 0.0 6.4 0.00 0.00 0.00 75 1019.9
20260507114539 11 244 1.6 12.9 0.00 0.00 0.00 75 1019.8
20260507113104 11 248 8.0 24.1 0.00 0.00 0.00 75 1019.8
20260507111532 11 252 9.7 19.3 0.00 0.00 0.00 75 1019.8
20260507110032 11 256 9.7 33.8 0.00 0.00 0.00 75 1019.8
20260507104607 11 256 6.4 17.7 0.00 0.00 0.00 75 1019.9
20260507103032 12 266 9.7 24.1 0.00 0.00 0.00 74 1019.9
20260507101532 12 251 11.3 27.4 0.00 0.00 0.00 74 1020.0
20260507093030 12 242 4.8 11.3 0.00 0.00 0.00 73 1020.1
20260507091531 12 232 8.0 19.3 0.00 0.00 0.00 73 1020.1
20260507090144 12 224 6.4 17.7 0.00 0.00 0.00 73 1020.3
20260507084529 12 203 8.0 17.7 0.00 0.00 0.00 74 1020.5
20260507081532 12 239 4.8 16.1 0.00 0.00 0.00 74 1020.8
20260507080030 12 227 6.4 17.7 0.00 0.00 0.00 76 1020.7
20260507074532 11 277 3.2 14.5 0.00 0.00 0.00 78 1020.8
20260507073031 11 262 1.6 8.0 0.00 0.00 0.00 77 1020.7
20260507071533 12 213 0.0 6.4 0.00 0.00 0.00 76 1020.6
20260507070105 12 281 1.6 8.0 0.00 0.00 0.00 76 1020.6
20260507064607 12 329 1.6 12.9 0.00 0.00 0.00 76 1020.7
20260507063031 12 277 3.2 9.7 0.00 0.00 0.00 76 1020.8
20260507061530 12 214 0.0 8.0 0.00 0.00 0.00 76 1020.8
20260507060030 12 245 1.6 8.0 0.00 0.00 0.00 77 1021.0
20260507054532 11 255 1.6 12.9 0.00 0.00 0.00 76 1021.0
20260507053107 12 242 3.2 8.0 0.00 0.00 0.00 73 1021.0
20260507051529 13 173 1.6 6.4 0.00 0.00 0.00 71 1021.1
20260507050035 13 274 3.2 17.7 0.00 0.00 0.00 70 1021.1
20260507044528 13 291 1.6 9.7 0.00 0.00 0.00 68 1021.0
20260507043030 14 315 3.2 17.7 0.00 0.00 0.00 67 1020.9
20260507041530 13 261 3.2 14.5 0.00 0.00 0.00 66 1020.7
20260507040037 13 259 3.2 9.7 0.00 0.00 0.00 65 1020.7
20260507034533 15 171 1.6 12.9 0.00 0.00 0.00 63 1020.7
20260507033030 15 238 3.2 14.5 0.00 0.00 0.00 61 1020.6
20260507031531 16 280 3.2 17.7 0.00 0.00 0.00 58 1020.6